sat.trackr.live / text

‹ back to catalog

UNKNOWN

NORAD 81921

UNKNOWN UNKNOWN UNKNOWN

§ Identity

Operator
Country
Launch date
Launch site
Launch vehicle
Mass (kg)
RCS (m²)

External: N2YO · Heavens-Above

§ Orbital elements

Epoch: 2026-09-16T02:34:27.346944Z

Period
109.42 min
Inclination
65.7068°
Eccentricity
0.0852006
Mean motion
13.15970467 rev/d
Perigee alt
554.5 km
Apogee alt
1,845.8 km
Semi-major
7,578.3 km
B*
3.6923e-4
RAAN
143.0443°
Arg perigee
355.0185°
Mean anomaly
4.2745°
Rev number
6,227

§ Raw data

UNKNOWN1 81921U          26259.10726096  .00000885  00000+0  36923-3 0  99922 81921  65.7068 143.0443 0852006 355.0185   4.2745 13.15970467 62274

JSON: /api/v1/satellites/81921 · /tle

For live sub-satellite position, see the globe view (requires WebGL).

§ Visibility from observer

Set your observer location to see the next 7 days of passes ≥ 10°. The values pass through the URL so the page stays shareable.

No JS? Fill the form by hand. The geolocation button needs JavaScript.